Regional Weather Roundup
Issued by NWS Little Rock, AR

Home | Current Version | Previous Version | Text Only | Print | Product List | Glossary Off
Versions: 1 2 3 4 5 6 7 8 9 10 11 12 13 14 15 16 17 18 19 20 21 22 23 24 25 26 27 28 29 30 31 32

000
ASUS44 KLZK 251605
RWRLZK

WEATHER ROUNDUP FOR ARKANSAS
NATIONAL WEATHER SERVICE LITTLE ROCK AR
1100 AM CDT SUN SEP 25 2016

NOTE: "FAIR" INDICATES FEW OR NO CLOUDS BELOW 12,000 FEET WITH NO
SIGNIFICANT WEATHER AND/OR OBSTRUCTIONS TO VISIBILITY.

ARZ001-003-010-029-251700-
NORTHWEST ARKANSAS

CITY           SKY/WX    TMP DP  RH WIND       PRES   REMARKS
FAYETTEVILLE   PTSUNNY   81  71  71 W8        30.11S HX  85
FORT SMITH     MOSUNNY   81  68  64 CALM      30.07R
HARRISON       SUNNY     83  69  62 VRB3      30.12S HX  86
BENTONVILLE    CLOUDY    81  66  61 SW5       30.12S
ROGERS         MOSUNNY   81  70  69 VRB7      30.12S
SILOAM SPGS    CLOUDY    81  64  57 S5          N/A
HIGHFILL       PTSUNNY   80  71  74 SW6       30.11S
SPRINGDALE     SUNNY     81  70  69 SE6       30.13S
$$

ARZ004-005-016-251700-
NORTH CENTRAL ARKANSAS

CITY           SKY/WX    TMP DP  RH WIND       PRES   REMARKS
BATESVILLE     SUNNY     84  72  65 CALM      30.07F HX  89
FLIPPIN        SUNNY     82  70  65 CALM      30.08S HX  86
MTN HOME       SUNNY     82  71  69 NW5       30.10S HX  86
$$

ARZ040-041-251700-
WEST CENTRAL ARKANSAS

CITY           SKY/WX    TMP DP  RH WIND       PRES   REMARKS
MENA           CLOUDY    79  75  89 CALM      30.11S
MOUNT IDA      SUNNY     83  72  69 CALM      30.07R HX  88
$$

ARZ009-017-025-026-028-251700-
NORTHEAST ARKANSAS

CITY           SKY/WX    TMP DP  RH WIND       PRES   REMARKS
CORNING          N/A     84  72  65 SW3       30.08S HX  89
JONESBORO      SUNNY     87  66  49 VRB5      30.06S HX  89
NEWPORT        MOSUNNY   84  69  60 CALM      30.07S HX  88
WALNUT RIDGE   SUNNY     86  66  51 SW5       30.07S HX  88
BLYTHEVILLE    SUNNY     89  66  46 SE7       30.07S HX  91
$$

ARZ022-023-033-042-044-251700-
CENTRAL ARKANSAS

CITY           SKY/WX    TMP DP  RH WIND       PRES   REMARKS
LITTLE ROCK    PTSUNNY   89  71  55 VRB3      30.06S HX  95
N LITTLE ROCK    N/A     85  73  67 CALM      30.04S HX  91
JACKSONVILLE   SUNNY     87  72  62 VRB2      30.06S HX  93
SEARCY         SUNNY     87  73  62 CALM      30.08S HX  94
HOT SPRINGS    MOSUNNY   84  71  65 W3        30.08R HX  89
RUSSELLVILLE   SUNNY     85  70  60 CALM      30.07S HX  89
$$

ARZ036-251700-
EAST ARKANSAS

CITY           SKY/WX    TMP DP  RH WIND       PRES   REMARKS
WEST MEMPHIS   SUNNY     89  64  43 SW7       30.05S HX  90
$$

ARZ050-053-066-070-073-251700-
SOUTHWEST ARKANSAS

CITY           SKY/WX    TMP DP  RH WIND       PRES   REMARKS
ARKADELPHIA    FAIR      83  75  77 CALM      30.07S HX  90
TEXARKANA      PTSUNNY   81  72  74 SE3       30.06S HX  85
EL DORADO      SUNNY     86  71  60 VRB3      30.06F HX  91
DE QUEEN       MOSUNNY   80  74  81 CALM      30.06S HX  85
$$

ARZ056-057-069-251700-
SOUTHEAST ARKANSAS

CITY           SKY/WX    TMP DP  RH WIND       PRES   REMARKS
PINE BLUFF     CLOUDY    85  71  63 NW6       30.06S HX  90
STUTTGART      CLOUDY    88  66  48 W6        30.07S HX  90
MONTICELLO     SUNNY     87  71  58 W7        30.06S HX  93

$$






USA.gov is the U.S. government's official web portal to all federal, state and local government web resources and services.